Regional Weather Roundup
Issued by NWS

Home | Current Version | Previous Version | Graphics & Text | Print | Product List | Glossary On
Versions: 1 2 3 4 5 6 7 8 9 10 11 12 13 14 15 16 17 18 19 20 21 22 23 24 25 26 27 28 29 30 31 32 33 34 35 36 37 38 39 40 41 42 43 44 45 46 47 48 49 50
000
ASUS43 KMPX 252210
RWRMN
WEATHER ROUNDUP FOR MINNESOTA
NATIONAL WEATHER SERVICE TWIN CITIES/CHANHASSEN MN
400 PM CST TUE NOV 25 2014


NOTE: "FAIR" INDICATES FEW OR NO CLOUDS BELOW 12,000 FEET WITH NO
SIGNIFICANT WEATHER AND/OR OBSTRUCTIONS TO VISIBILITY. N/A MEANS
CURRENT SKY AND/OR WEATHER CONDITIONS ARE NOT AVAILABLE.

MNZ060>063-068>070-252300-
   Twin Cities Metro

CITY           SKY/WX    TMP DP  RH WIND       PRES   REMARKS
TWIN CITIES    CLOUDY    23  12  62 S7        30.04S WCI  15
ST PAUL        CLOUDY    23  14  68 S8        30.07R WCI  14
CRYSTAL        CLOUDY    23  12  62 SE6       30.03R WCI  16
BLAINE         CLOUDY    23  14  68 S6        30.03S WCI  16
LAKEVILLE      CLOUDY    23  12  63 S5        30.03S WCI  17
EDEN PRAIRIE   CLOUDY    23  12  62 SE7       30.01F WCI  15
SOUTH ST PAUL  CLOUDY    24  15  69 S3        30.05R
LAKE ELMO      CLOUDY    23  18  80 S6        30.05S WCI  16
$$
MNZ001>005-007-008-013>017-022>024-027-028-252300-
   Northwest Minnesota

CITY           SKY/WX    TMP DP  RH WIND       PRES   REMARKS
BEMIDJI        CLOUDY    20  12  71 E5        29.92R WCI  14
HALLOCK        CLOUDY    18  10  73 N8        29.97R WCI   7
ROSEAU         CLOUDY    19  12  73 N3        29.96R
WARROAD        FLURRIES  18  12  79 NW3       29.97R
THIEF RVR FALL CLOUDY    21  16  79 NE5       29.95R WCI  15
CROOKSTON      CLOUDY    21  16  79 E6        29.95R WCI  14
FOSSTON        MOCLDY    21  16  79 CALM      29.92S
DETROIT LAKES  CLOUDY    23  18  80 SE9       29.91F WCI  13
MOORHEAD       CLOUDY    27  21  80 SE8       29.93R WCI  18
PARK RAPIDS    CLOUDY    21  12  68 SE10      29.91F WCI  10
MAHNOMEN       MOCLDY    24  18  80 S3        29.91R
$$
MNZ006-009>011-018-025>026-252300-
   North Central Minnesota

CITY           SKY/WX    TMP DP  RH WIND       PRES   REMARKS
BAUDETTE       CLOUDY    18  12  77 E5        29.94R HAZE    WCI  11
FLAG ISLAND    LGT SNOW  12   7  79 CALM      29.96R
INTL FALLS     MOCLDY    16   7  67 W5        29.95R WCI   9
WASKISH        CLOUDY    19  14  79 CALM      29.95R
BIG FORK       CLOUDY    19   9  63 S3        29.95R
LONGVILLE      CLOUDY    19   9  63 S6        29.95R WCI  11
GRAND RAPIDS   CLOUDY    18   5  57 S6        29.95R WCI   9
CRANE LAKE     MOCLDY    18   3  53 CALM      29.97R
ORR            CLOUDY    18   3  53 CALM      29.93R
COOK           PTCLDY    18   5  57 CALM      29.95S
WALKER         MOCLDY    21  10  63 S5        29.93R WCI  15
$$
MNZ012-019>021-037-252300-
   Northeast Minnesota

CITY           SKY/WX    TMP DP  RH WIND       PRES   REMARKS
DULUTH         PTCLDY    19   7  59 SW7       29.95S WCI  10
ELY            CLEAR     16   5  62 CALM      29.95R
HIBBING        CLOUDY    22  -2  35 SW5       29.95R WCI  16
EVELETH        PTCLDY    21   5  49 SW5       29.96R WCI  15
DULUTH HARBOR  PTCLDY    23   9  54 CALM      30.02S
TWO HARBORS    CLEAR     25  12  58 W5        29.96R WCI  19
SILVER BAY     CLEAR     25  14  63 S5        29.95R WCI  19
GRAND MARAIS     N/A     26  17  68 SW13      29.99R WCI  15
G MARAIS ARPRT PTCLDY    16   3  57 CALM      29.91S
$$
MNZ029>031-032-039>041-046>048-054>057-064-252300-
   West Central Minnesota

CITY           SKY/WX    TMP DP  RH WIND       PRES   REMARKS
FERGUS FALLS   CLOUDY    23  12  63 SE12      29.95S WCI  12
WHEATON        CLOUDY    23  18  80 E12       29.93R WCI  12
MORRIS         CLOUDY    25  18  74 SE10      29.92S WCI  15
ALEXANDRIA     CLOUDY    22  10  60 SE9       29.94S WCI  12
ELBOW LAKE       N/A     22  14  71 SE10      29.91F WCI  11
WADENA         CLOUDY    21  10  63 SE7       29.92F WCI  13
GLENWOOD       MOCLDY    21  12  68 SE9       29.95S WCI  11
APPLETON       MOCLDY    28  19  69 SE10      29.92F WCI  19
BENSON         CLOUDY    27  18  69 S10       29.94S WCI  17
ORTONVILLE     MOCLDY    27  19  74 SE9       29.91S WCI  17
MADISON        MOCLDY    34  27  75 SE7       29.91S WCI  28
WILLMAR        MOCLDY    27  16  63 SE10      29.97S WCI  17
$$
MNZ033>034-036-042>043-049>051-058-059-252300-
   Central Minnesota

CITY           SKY/WX    TMP DP  RH WIND       PRES   REMARKS
ST CLOUD       CLOUDY    20   9  62 SE7       30.00S WCI  11
SAUK CENTRE    CLOUDY    19  10  67 E6        29.97S WCI  11
PAYNESVILLE    CLOUDY    19  11  70 E8        29.98S WCI   9
AITKIN         CLOUDY    21   9  58 S5        29.96F WCI  15
PINE RIVER     CLOUDY    19   9  63 S7        29.99R WCI  10
BRAINERD       CLOUDY    18   7  62 S6        29.97F WCI  10
STAPLES        MOCLDY    19   7  58 SE6       29.95F WCI  11
LONG PRAIRIE   CLOUDY    19   9  63 E6        29.96S WCI  11
LITTLE FALLS   CLOUDY    21   9  58 SE5       29.99F WCI  15
LITCHFIELD     CLOUDY    25  12  58 SE7       29.99S WCI  17
BUFFALO        CLOUDY    22  10  59 SE5       30.03R WCI  16
MAPLE LAKE     CLOUDY    22  13  68 SE6       30.02S WCI  15
$$
MNZ037-044-045-052-053-252300-
   East Central Minnesota

CITY           SKY/WX    TMP DP  RH WIND       PRES   REMARKS
PRINCETON      CLOUDY    19  10  68 CALM      30.02R
MORA           MOCLDY    19  10  68 S3        30.03R
CAMBRIDGE      CLOUDY    21  10  63 S3        30.02R
RUSH CITY      CLOUDY    19  11  74 S3        30.04R
MOOSE LAKE     PTCLDY    19  10  68 S3        29.99R
HINCKLEY       CLOUDY    19  12  73 CALM      30.01S
CLOQUET        MOCLDY    19   7  58 S6        29.97S WCI  11
MCGREGOR       CLOUDY    19   9  63 S7        29.98S WCI  10
$$
MNZ071>073-080-081-089-090-097-098-252300-
   Southwest Minnesota

CITY           SKY/WX    TMP DP  RH WIND       PRES   REMARKS
MONTEVIDEO     CLOUDY    28  21  74 S10       29.94S WCI  19
GRANITE FALLS  CLOUDY    32  21  65 SE8       29.95S WCI  24
CANBY          MOCLDY    33  24  70 S8        29.91S WCI  25
MARSHALL       MOCLDY    32  18  55 S9        29.92S WCI  24
REDWOOD FALLS  CLOUDY    32  19  58 SE10      29.96F WCI  24
OLIVIA         MOCLDY    28  18  64 SE9       29.96S WCI  20
PIPESTONE      MOCLDY    32  21  64 S10       29.88S WCI  24
WINDOM         PTCLDY    34  16  47 S8        29.94S WCI  27
WORTHINGTON    PTCLDY    34  16  47 S13       29.93S WCI  25
JACKSON        PTCLDY    32  14  47 S10       29.95S WCI  24
TRACY          MOCLDY    33  20  59 S10       29.92F WCI  25
SLAYTON        MOCLDY    32  20  62 S10       29.91F WCI  24
$$
MNZ065>067-074>077-082>085-091>093-252300-
   South Central Minnesota

CITY           SKY/WX    TMP DP  RH WIND       PRES   REMARKS
MANKATO        CLOUDY    27   9  46 S7        30.01S WCI  19
NEW ULM        CLOUDY    28  16  59 SE8       29.98F WCI  20
ST JAMES       PTCLDY    34  12  40 SE9       29.98F WCI  26
FAIRMONT       MOCLDY    30   9  40 S13       29.98S WCI  20
GLENCOE        CLOUDY    26  13  57 SE8       30.00S WCI  18
FARIBAULT      PTCLDY    25  16  68 SE3       30.03S
OWATONNA       CLEAR     25  12  58 CALM      30.02S
WASECA         PTCLDY    27  12  54 SE5       30.03S WCI  21
ALBERT LEA     CLOUDY    27  12  54 S7        30.01S WCI  19
$$
MNZ078>079-086>088-094>096-252300-
   Southeast Minnesota

CITY           SKY/WX    TMP DP  RH WIND       PRES   REMARKS
ROCHESTER      MOCLDY    24  15  68 SE12      30.02F WCI  13
RED WING       CLOUDY    25  14  63 CALM      30.05F
STANTON        PTCLDY    25  16  67 S3        30.03S
DODGE CENTER   PTCLDY    25  16  68 S6        30.02R WCI  18
WINONA         CLOUDY    27  18  69 SW3       30.09R
AUSTIN         PTCLDY    25  16  68 S6        30.03R WCI  18
PRESTON        PTCLDY    22  13  69 SW5       30.05S WCI  15
$$
ABBREVIATIONS USED IN REMARKS
   TC - TEMPERATURES IN CELSIUS
  WCI - WIND CHILL INDEX
   HX - HEAT INDEX
  VSB - VISIBILITY
$$


USA.gov is the U.S. government's official web portal to all federal, state and local government web resources and services.